Home   Weather   New York   Past weeks
Flag for USA

Past Weather in New York, New York, USA — Yesterday and Last 2 Weeks

Now
32 °F

Clear.


Feels Like: N/A
Forecast: 45 / 25 °F
Wind: N/A

Location: New York City - Central Park

Current Time: Jan 23, 2019 at 4:39:08 am

Latest Report: Jan 23, 2019 at 3:51 am


Visibility: 10 mi

Pressure: 30.44 "Hg

Humidity: 41%

Dew Point: 11 °F

Location of New YorkLocation

Past Weather in New York — Graph

°F

New York Temperature Yesterday

Maximum temperature yesterday: 31 °F (at 11:51 pm)
Minimum temperature yesterday: 13 °F (at 1:51 am)
Average temperature yesterday: 23 °F

High & Low Weather Summary for the Past Weeks

 TemperatureHumidityPressure
High45 °F (Jan 8, 10:10 pm)97% (Jan 8, 6:51 am)30.65 "Hg (Jan 8, 6:51 am)
Low4 °F (Jan 21, 8:51 am)27% (Jan 11, 2:51 pm)29.22 "Hg (Jan 20, 10:51 am)
Average30 °F59%30.08 "Hg
* Reported Jan 8 2:51 am — Jan 23 2:51 am, New York. Weather by CustomWeather, © 2019

Note: Actual official high and low records may vary slightly from our data, if they occured in-between our weather recording intervals... More about our weather records

Advertising

New York Weather History for the Previous 24 Hours

Scroll right to see more
 ConditionsComfort  
Time TempWeatherWind HumidityBarometerVisibility
2:51 am
Wed, Jan 23
31 °FClear.N/A43%30.46 "Hg10 mi
1:51 am31 °FClear.N/A35%30.49 "Hg10 mi
12:51 am31 °FClear.N/A38%30.51 "Hg10 mi
11:51 pm
Tue, Jan 22
31 °FClear.N/A33%30.54 "Hg10 mi
10:51 pm30 °FClear.N/A34%30.55 "Hg10 mi
9:51 pm30 °FClear.N/A34%30.57 "Hg10 mi
8:51 pm30 °FClear.N/A31%30.58 "Hg10 mi
7:51 pm29 °FClear.N/A36%30.60 "Hg10 mi
6:51 pm30 °FClear.N/A31%30.61 "Hg10 mi
5:51 pm30 °FClear.N/A27%30.60 "Hg10 mi
4:51 pm30 °FSunny.N/A27%30.60 "Hg10 mi
3:51 pm30 °FSunny.N/A27%30.60 "Hg10 mi
2:51 pm29 °FSunny.N/A27%30.61 "Hg10 mi
1:51 pm28 °FSunny.N/A27%30.61 "Hg10 mi
12:51 pm25 °FSunny.N/A30%30.63 "Hg10 mi
11:51 am23 °FSunny.N/A35%30.64 "Hg10 mi
10:51 am20 °FSunny.N/A40%30.65 "Hg10 mi
9:51 am18 °FSunny.N/A43%30.64 "Hg10 mi
8:51 am16 °FSunny.N/A51%30.65 "Hg10 mi
7:51 am14 °FSunny.N/A56%30.62 "Hg10 mi
6:51 am14 °FClear.N/A56%30.59 "Hg10 mi
5:51 am14 °FClear.N/A56%30.57 "Hg10 mi
4:51 am15 °FClear.N/A53%30.52 "Hg10 mi
Weather by CustomWeather, © 2019

See weather overview